| time (UTC) | temp C | wind direction | speed KPH | gust KPH | rain 1hr cm | rain 24hr cm | rain mn cm | humidity % | barometer mb |
| 20260507114552 | 8 | 311 | 0.0 | 8.0 | 0.00 | 1.45 | 0.56 | 89 | 1006.2 |
| 20260507113051 | 8 | 311 | 1.6 | 8.0 | 0.00 | 1.45 | 0.56 | 90 | 1006.2 |
| 20260507111550 | 7 | 311 | 3.2 | 9.7 | 0.00 | 1.45 | 0.56 | 90 | 1006.3 |
| 20260507110057 | 7 | 311 | 0.0 | 3.2 | 0.00 | 1.45 | 0.56 | 91 | 1006.5 |
| 20260507104551 | 7 | 311 | 0.0 | 4.8 | 0.00 | 1.45 | 0.56 | 92 | 1006.0 |
| 20260507103111 | 7 | 311 | 3.2 | 8.0 | 0.00 | 1.45 | 0.56 | 92 | 1005.6 |
| 20260507101543 | 7 | 311 | 4.8 | 8.0 | 0.00 | 1.45 | 0.56 | 92 | 1005.8 |
| 20260507100050 | 7 | 311 | 0.0 | 8.0 | 0.00 | 1.45 | 0.56 | 92 | 1005.4 |
| 20260507094538 | 7 | 311 | 4.8 | 8.0 | 0.00 | 1.45 | 0.56 | 92 | 1005.6 |
| 20260507093038 | 7 | 311 | 3.2 | 8.0 | 0.00 | 1.45 | 0.56 | 92 | 1005.3 |
| 20260507091539 | 7 | 311 | 4.8 | 8.0 | 0.00 | 1.45 | 0.56 | 92 | 1005.4 |
| 20260507090035 | 7 | 311 | 0.0 | 6.4 | 0.00 | 1.45 | 0.56 | 92 | 1006.1 |
| 20260507084541 | 7 | 311 | 1.6 | 8.0 | 0.00 | 1.45 | 0.56 | 92 | 1005.3 |
| 20260507083030 | 7 | 314 | 6.4 | 12.9 | 0.00 | 1.45 | 0.56 | 92 | 1005.2 |
| 20260507081529 | 7 | 321 | 3.2 | 9.7 | 0.00 | 1.45 | 0.56 | 92 | 1005.2 |
| 20260507080147 | 7 | 322 | 4.8 | 9.7 | 0.03 | 1.45 | 0.56 | 92 | 1005.1 |
| 20260507074526 | 7 | 328 | 4.8 | 9.7 | 0.03 | 1.45 | 0.56 | 92 | 1005.2 |
| 20260507073024 | 7 | 328 | 4.8 | 9.7 | 0.03 | 1.45 | 0.56 | 93 | 1004.8 |
| 20260507071526 | 8 | 316 | 4.8 | 9.7 | 0.03 | 1.45 | 0.56 | 93 | 1004.8 |
| 20260507070022 | 8 | 293 | 6.4 | 11.3 | 0.03 | 1.42 | 0.53 | 94 | 1004.8 |
| 20260507064519 | 8 | 310 | 4.8 | 9.7 | 0.10 | 1.42 | 0.53 | 94 | 1004.7 |
| 20260507063018 | 8 | 341 | 4.8 | 9.7 | 0.28 | 1.42 | 0.53 | 94 | 1004.6 |
| 20260507061516 | 8 | 324 | 6.4 | 11.3 | 0.48 | 1.42 | 0.53 | 95 | 1004.4 |
| 20260507060019 | 8 | 337 | 6.4 | 11.3 | 0.46 | 1.42 | 0.51 | 95 | 1004.3 |
| 20260507054511 | 9 | 317 | 6.4 | 12.9 | 0.36 | 1.32 | 0.41 | 95 | 1004.5 |
| 20260507053007 | 9 | 314 | 8.0 | 16.1 | 0.20 | 1.14 | 0.23 | 95 | 1005.0 |
| 20260507051504 | 10 | 335 | 9.7 | 14.5 | 0.05 | 0.97 | 0.05 | 95 | 1004.1 |
| 20260507050009 | 11 | 233 | 0.0 | 3.2 | 0.05 | 0.97 | 0.05 | 95 | 1003.8 |
| 20260507044606 | 11 | 237 | 0.0 | 6.4 | 0.05 | 0.97 | 0.05 | 95 | 1003.9 |
| 20260507043101 | 11 | 226 | 1.6 | 11.3 | 0.03 | 0.94 | 0.03 | 95 | 1003.9 |
| 20260507041605 | 11 | 217 | 6.4 | 16.1 | 0.00 | 0.91 | 0.00 | 95 | 1003.9 |
| 20260507040055 | 10 | 165 | 1.6 | 8.0 | 0.00 | 0.91 | 0.00 | 95 | 1004.0 |
| 20260507034557 | 10 | 162 | 0.0 | 6.4 | 0.00 | 0.91 | 0.91 | 95 | 1003.9 |
| 20260507033055 | 10 | 160 | 0.0 | 3.2 | 0.00 | 0.91 | 0.91 | 95 | 1004.0 |
| 20260507031552 | 10 | 161 | 0.0 | 6.4 | 0.03 | 0.91 | 0.91 | 95 | 1004.1 |
| 20260507030051 | 9 | 159 | 0.0 | 6.4 | 0.03 | 0.91 | 0.91 | 95 | 1004.2 |
| 20260507024553 | 9 | 160 | 0.0 | 8.0 | 0.05 | 0.91 | 0.91 | 95 | 1004.4 |
| 20260507023046 | 9 | 159 | 4.8 | 8.0 | 0.08 | 0.91 | 0.91 | 95 | 1004.7 |
| 20260507021543 | 9 | 156 | 3.2 | 8.0 | 0.05 | 0.89 | 0.89 | 95 | 1005.0 |
| 20260507020055 | 10 | 154 | 1.6 | 6.4 | 0.08 | 0.89 | 0.89 | 95 | 1005.2 |
| 20260507014556 | 10 | 154 | 1.6 | 4.8 | 0.05 | 0.86 | 0.86 | 95 | 1005.3 |
| 20260507013045 | 10 | 158 | 1.6 | 6.4 | 0.03 | 0.84 | 0.84 | 95 | 1005.6 |
| 20260507011542 | 10 | 156 | 0.0 | 6.4 | 0.03 | 0.84 | 0.84 | 95 | 1005.9 |
| 20260507010043 | 10 | 150 | 0.0 | 4.8 | 0.00 | 0.81 | 0.81 | 95 | 1006.0 |
| 20260507004534 | 10 | 160 | 1.6 | 6.4 | 0.03 | 0.81 | 0.81 | 95 | 1006.2 |
| 20260507003033 | 10 | 156 | 1.6 | 8.0 | 0.05 | 0.81 | 0.81 | 95 | 1006.4 |
| 20260507001552 | 10 | 152 | 4.8 | 9.7 | 0.08 | 0.81 | 0.81 | 95 | 1006.4 |
| 20260507000037 | 10 | 175 | 3.2 | 9.7 | 0.13 | 0.81 | 0.81 | 95 | 1006.5 |
| 20260506234536 | 10 | 173 | 1.6 | 6.4 | 0.15 | 0.79 | 0.79 | 94 | 1006.5 |
| 20260506233033 | 10 | 211 | 6.4 | 9.7 | 0.25 | 0.76 | 0.76 | 95 | 1006.8 |
| 20260506231533 | 10 | 139 | 0.0 | 9.7 | 0.30 | 0.71 | 0.71 | 94 | 1006.6 |
| 20260506230030 | 10 | 143 | 3.2 | 8.0 | 0.33 | 0.69 | 0.69 | 94 | 1006.5 |
| 20260506224529 | 10 | 135 | 3.2 | 11.3 | 0.36 | 0.64 | 0.64 | 94 | 1006.5 |
| 20260506223028 | 10 | 122 | 1.6 | 8.0 | 0.28 | 0.51 | 0.51 | 94 | 1007.1 |
| 20260506221527 | 10 | 135 | 1.6 | 8.0 | 0.25 | 0.43 | 0.43 | 94 | 1007.2 |
| 20260506220028 | 10 | 131 | 1.6 | 8.0 | 0.20 | 0.33 | 0.33 | 93 | 1007.2 |
| 20260506214525 | 10 | 129 | 1.6 | 6.4 | 0.18 | 0.28 | 0.28 | 93 | 1007.5 |
| 20260506213025 | 11 | 117 | 1.6 | 8.0 | 0.18 | 0.23 | 0.23 | 93 | 1007.6 |
| 20260506211537 | 12 | 224 | 4.8 | 12.9 | 0.18 | 0.18 | 0.18 | 93 | 1007.6 |
| 20260506210033 | 12 | 172 | 0.0 | 16.1 | 0.13 | 0.13 | 0.13 | 93 | 1008.1 |
| 20260506204526 | 11 | 156 | 1.6 | 8.0 | 0.10 | 0.10 | 0.10 | 93 | 1008.0 |
| 20260506203022 | 11 | 156 | 0.0 | 3.2 | 0.05 | 0.05 | 0.05 | 92 | 1007.8 |
| 20260506201527 | 11 | 146 | 1.6 | 4.8 | 0.00 | 0.00 | 0.00 | 91 | 1008.1 |
| 20260506200024 | 11 | 162 | 4.8 | 9.7 | 0.00 | 0.00 | 0.00 | 91 | 1008.0 |
| 20260506194521 | 11 | 135 | 3.2 | 8.0 | 0.00 | 0.00 | 0.00 | 90 | 1008.0 |
| 20260506193032 | 11 | 141 | 4.8 | 11.3 | 0.00 | 0.00 | 0.00 | 90 | 1008.1 |
| 20260506191519 | 11 | 129 | 3.2 | 9.7 | 0.00 | 0.00 | 0.00 | 90 | 1007.5 |
| 20260506190019 | 11 | 140 | 4.8 | 14.5 | 0.00 | 0.00 | 0.00 | 88 | 1008.3 |
| 20260506184517 | 12 | 157 | 4.8 | 12.9 | 0.00 | 0.00 | 0.00 | 89 | 1008.1 |
| 20260506183017 | 11 | 123 | 4.8 | 9.7 | 0.00 | 0.00 | 0.00 | 90 | 1008.3 |
| 20260506181533 | 11 | 138 | 4.8 | 11.3 | 0.00 | 0.00 | 0.00 | 89 | 1008.6 |
| 20260506180014 | 11 | 118 | 6.4 | 12.9 | 0.00 | 0.00 | 0.00 | 89 | 1008.7 |
| 20260506174512 | 11 | 114 | 4.8 | 12.9 | 0.00 | 0.00 | 0.00 | 88 | 1008.8 |
| 20260506173012 | 12 | 128 | 1.6 | 9.7 | 0.00 | 0.00 | 0.00 | 88 | 1009.0 |
| 20260506171515 | 12 | 129 | 0.0 | 6.4 | 0.00 | 0.00 | 0.00 | 89 | 1009.1 |
| 20260506170011 | 11 | 129 | 4.8 | 9.7 | 0.00 | 0.00 | 0.00 | 88 | 1009.2 |
| 20260506164511 | 11 | 125 | 0.0 | 9.7 | 0.00 | 0.00 | 0.00 | 89 | 1009.5 |
| 20260506163015 | 12 | 143 | 3.2 | 9.7 | 0.00 | 0.00 | 0.00 | 87 | 1009.8 |
| 20260506161508 | 12 | 139 | 4.8 | 11.3 | 0.00 | 0.00 | 0.00 | 88 | 1010.0 |
| 20260506160010 | 12 | 161 | 4.8 | 9.7 | 0.00 | 0.00 | 0.00 | 88 | 1010.1 |
| 20260506154508 | 12 | 164 | 3.2 | 9.7 | 0.00 | 0.00 | 0.00 | 88 | 1010.1 |
| 20260506153007 | 12 | 146 | 4.8 | 12.9 | 0.00 | 0.00 | 0.00 | 87 | 1009.8 |
| 20260506151508 | 12 | 136 | 4.8 | 11.3 | 0.00 | 0.00 | 0.00 | 87 | 1009.4 |
| 20260506150013 | 12 | 131 | 4.8 | 11.3 | 0.00 | 0.00 | 0.00 | 87 | 1009.6 |
| 20260506144505 | 12 | 135 | 4.8 | 8.0 | 0.00 | 0.00 | 0.00 | 89 | 1010.2 |
| 20260506143004 | 12 | 125 | 4.8 | 11.3 | 0.00 | 0.00 | 0.00 | 89 | 1010.4 |
| 20260506141503 | 11 | 143 | 8.0 | 12.9 | 0.00 | 0.00 | 0.00 | 89 | 1010.7 |
| 20260506134600 | 12 | 137 | 1.6 | 4.8 | 0.00 | 0.00 | 0.00 | 88 | 1010.2 |
| 20260506133126 | 11 | 138 | 1.6 | 11.3 | 0.00 | 0.00 | 0.00 | 89 | 1010.1 |
| 20260506131559 | 11 | 126 | 4.8 | 11.3 | 0.00 | 0.00 | 0.00 | 88 | 1010.1 |
| 20260506130122 | 11 | 136 | 4.8 | 9.7 | 0.00 | 0.00 | 0.00 | 89 | 1010.4 |
| 20260506124559 | 11 | 120 | 0.0 | 8.0 | 0.00 | 0.00 | 0.00 | 88 | 1010.4 |
| 20260506123058 | 12 | 104 | 3.2 | 8.0 | 0.00 | 0.00 | 0.00 | 86 | 1010.4 |
| 20260506121553 | 12 | 104 | 0.0 | 0.0 | 0.00 | 0.00 | 0.00 | 88 | 1010.7 |
| 20260506120050 | 11 | 104 | 0.0 | 3.2 | 0.00 | 0.00 | 0.00 | 89 | 1010.9 |